Date,TemperatureHighF,TemperatureAvgF,TemperatureLowF,DewpointHighF,DewpointAvgF,DewpointLowF,HumidityHigh,HumidityAvg,HumidityLow,PressureMaxIn,PressureMinIn,WindSpeedMaxMPH,WindSpeedAvgMPH,GustSpeedMaxMPH,PrecipitationSumIn
2013-1-1,23,10,3,7,-2,-8,70,59,41,30.07,29.92,4,0,5,0.00
2013-1-3,25,9,-2,4,-8,-14,64,47,27,30.15,30.09,2,0,4,0.00
2013-1-4,34,17,7,0,-10,-19,43,30,21,30.12,30.06,2,0,2,0.02
2013-1-5,43,24,13,8,-4,-11,39,29,22,30.22,30.09,2,0,3,0.00
2013-1-6,49,30,22,14,-2,-8,32,25,21,30.19,30.03,4,1,6,0.00
2013-1-7,42,28,22,7,-3,-8,34,26,21,30.03,29.98,2,0,4,0.00
2013-1-8,39,26,18,11,-1,-10,57,33,22,30.23,29.98,4,1,5,0.00
2013-1-9,41,24,17,12,6,4,58,47,30,30.25,30.21,2,0,4,0.00
2013-1-10,46,33,27,17,4,-8,58,31,21,30.06,29.64,13,2,17,0.00
2013-1-11,30,12,-1,14,-4,-21,78,50,24,29.77,29.50,17,6,24,0.01
2013-1-12,10,0,-4,-7,-16,-21,58,47,26,29.78,29.71,4,1,7,0.00
2013-1-13,12,2,-5,-4,-13,-43,61,48,10,29.81,29.73,5,1,7,0.00
2013-1-14,12,-2,-8,-4,-15,-21,57,53,42,29.93,29.80,2,0,4,0.00
2013-1-15,19,3,-11,3,-12,-24,61,49,31,30.17,29.92,5,0,7,0.00
2013-1-16,38,18,4,16,4,-7,68,54,32,30.27,30.15,4,0,4,0.00
2013-1-17,44,30,15,17,8,3,60,43,27,30.32,30.26,97,5,97,0.01
2013-1-18,45,39,22,14,11,6,54,32,26,30.28,30.21,2,0,4,0.01
2013-1-19,45,45,45,13,13,13,27,27,27,30.30,30.21,1,1,2,0.00
2013-1-20,45,38,24,13,4,-9,27,24,21,30.25,30.18,3,1,98,0.00
2013-1-21,48,45,34,14,10,2,27,24,21,30.25,30.19,3,1,4,0.00
2013-1-22,52,48,30,14,12,-2,25,23,21,30.29,30.22,3,1,97,0.00
2013-1-23,52,52,52,14,14,14,22,22,22,30.31,30.25,1,1,2,0.00
2013-1-24,52,39,30,26,16,-1,78,43,21,30.26,30.21,8,1,14,0.00
2013-1-25,40,34,29,32,26,-13,90,75,10,30.24,30.16,4,1,4,0.00
2013-1-26,38,33,30,34,29,26,93,86,77,30.16,29.86,2,0,2,0.12
2013-1-27,46,36,30,36,24,11,95,68,33,29.94,29.85,11,2,16,0.28
2013-1-28,35,29,14,19,12,-1,78,51,34,29.86,29.74,13,4,17,0.28
2013-1-29,23,12,6,11,2,-6,76,65,41,29.91,29.70,2,0,4,0.00
2013-1-30,24,16,5,12,3,-7,65,56,43,30.08,29.91,8,0,12,0.00
2013-1-31,42,27,18,19,12,6,68,53,31,30.20,30.07,9,2,14,0.00
2013-2-1,42,20,0,16,9,2,57,33,28,30.25,30.14,6,1,10,0.00
2013-2-2,45,34,20,12,7,2,47,33,23,30.32,30.24,2,0,4,0.00
2013-2-3,45,37,28,12,4,-7,29,24,21,30.24,30.06,6,1,9,0.00
2013-2-4,46,41,20,19,16,-3,59,37,28,30.10,30.05,3,1,6,0.02
2013-2-5,50,38,20,15,8,-3,46,30,23,30.11,29.99,2,1,4,0.00
2013-2-6,43,33,24,19,14,-23,77,45,10,30.06,29.95,11,3,16,0.00
2013-2-7,42,30,14,22,12,1,77,51,29,30.12,30.01,4,0,49,0.12
2013-2-8,39,28,22,14,5,-1,48,37,25,30.01,29.86,10,2,16,0.00
2013-2-9,27,20,15,15,11,5,76,67,51,29.72,29.61,7,2,11,0.00
2013-2-10,31,18,10,15,7,-1,73,62,43,29.82,29.73,6,1,8,0.01
2013-2-11,29,15,8,11,4,-2,71,61,42,29.95,29.80,1,0,2,0.00
2013-2-12,30,14,2,9,0,-7,68,53,27,30.08,29.94,4,0,6,0.00
2013-2-13,38,22,8,15,6,-5,63,52,32,30.10,30.05,5,1,8,0.06
2013-2-14,37,21,15,16,6,-2,63,51,31,30.16,30.03,4,1,7,0.01
2013-2-15,36,22,14,12,1,-9,57,41,27,30.29,30.15,6,1,10,0.00
2013-2-16,45,30,19,8,0,-8,35,27,21,30.28,30.10,8,2,12,0.00
2013-2-17,47,35,22,16,2,-8,75,26,21,30.10,29.78,13,4,19,0.00
2013-2-18,36,18,8,16,6,-3,76,61,24,30.01,29.84,9,1,13,0.00
2013-2-19,45,30,16,8,-3,-16,28,24,21,29.97,29.73,5,1,8,0.00
2013-2-20,31,25,20,18,10,-3,75,55,27,29.73,29.61,11,1,17,0.00
2013-2-21,33,22,17,21,14,9,76,69,57,29.83,29.65,4,0,6,0.04
2013-2-22,25,16,6,14,6,-5,71,64,55,29.96,29.81,8,1,12,0.00
2013-2-23,40,19,5,22,6,-9,78,58,29,29.95,29.70,12,1,16,0.04
2013-2-24,21,21,21,15,15,15,77,77,77,29.71,29.71,0,0,2,0.04
2013-2-25,21,21,21,15,15,15,77,77,77,29.71,29.71,0,0,2,0.04
2013-2-26,21,21,21,15,15,15,77,77,77,29.71,29.71,0,0,2,0.04
2013-2-27,21,21,21,15,15,15,77,77,77,29.71,29.71,0,0,2,0.04
2013-2-28,21,21,21,15,15,15,77,77,77,29.71,29.71,0,0,2,0.04
2013-3-1,21,21,21,15,15,15,77,77,77,29.71,29.71,0,0,2,0.04
2013-3-2,21,21,21,15,15,15,77,77,77,29.71,29.71,0,0,2,0.04
2013-3-3,21,21,21,15,15,15,77,77,77,29.71,29.71,0,0,2,0.04
2013-3-4,21,21,21,15,15,15,77,77,77,29.71,29.71,0,0,2,0.04
2013-3-5,21,21,21,15,15,15,77,77,77,29.71,29.71,0,0,2,0.04
2013-3-6,21,21,21,15,15,15,77,77,77,29.71,29.71,0,0,2,0.04
2013-3-7,21,21,21,15,15,15,77,77,77,29.71,29.71,0,0,2,0.04
2013-3-8,21,21,21,15,15,15,77,77,77,29.71,29.71,0,0,2,0.04
2013-3-9,21,21,21,15,15,15,77,77,77,29.71,29.71,0,0,2,0.04
2013-3-10,21,21,21,15,15,15,77,77,77,29.71,29.71,0,0,2,0.04
2013-3-11,21,21,21,15,15,15,77,77,77,29.71,29.71,0,0,2,0.04
2013-3-12,21,21,21,15,15,15,77,77,77,29.71,29.71,0,0,2,0.04
2013-3-13,56,29,21,21,14,3,77,59,21,30.29,29.71,3,0,5,0.09
2013-3-14,62,42,34,21,13,3,43,30,20,30.32,30.25,5,1,7,0.00
2013-3-15,60,47,42,22,14,9,42,27,21,30.25,30.03,11,1,14,0.00
2013-3-16,48,40,34,34,24,13,83,55,30,30.03,29.90,6,1,98,0.07
2013-3-17,44,37,30,28,13,4,88,38,24,29.90,29.78,21,6,33,0.01
2013-3-18,40,31,-9,9,3,-37,40,29,10,30.00,29.88,21,5,34,0.00
2013-3-19,127,35,27,13,5,-5,35,28,21,30.13,29.98,6,1,8,0.00
2013-3-20,45,36,27,26,9,-14,61,36,16,30.13,29.89,8,2,11,0.00
2013-3-21,43,35,24,31,17,-18,85,50,10,29.89,29.73,27,5,47,0.01
2013-3-22,24,22,21,-3,-5,-6,34,29,26,29.85,29.77,2,1,4,0.00
2013-4-30,21,11,5,7,0,-8,73,61,46,29.87,29.59,0,0,2,0.00
2013-5-1,24,21,9,14,8,-6,67,56,44,30.00,29.86,8,2,12,0.00
2013-5-2,41,27,18,18,10,4,65,50,31,30.08,30.00,3,1,5,0.00
2013-5-3,42,26,20,15,7,2,54,43,28,30.15,30.02,4,0,4,0.00
2013-5-4,44,31,20,12,4,-7,47,32,21,30.19,30.03,2,0,4,0.00
2013-5-5,43,27,16,20,10,-2,79,56,21,30.02,29.92,24,1,9,0.00
2013-5-6,49,40,18,40,34,6,95,80,31,29.98,29.91,9,2,14,0.13
2013-5-7,54,40,34,40,34,26,95,82,43,29.98,29.91,8,1,14,0.01
2013-5-8,48,36,32,36,32,29,91,85,62,29.98,29.90,9,1,15,0.20
2013-5-9,56,35,32,38,32,31,94,90,39,30.01,29.94,3,0,6,0.06
2013-5-10,61,56,49,35,30,25,46,37,27,30.11,30.08,8,3,13,0.00
2013-5-11,64,49,38,30,23,20,55,39,21,30.22,30.18,6,1,10,0.00
2013-5-12,69,61,45,30,26,23,53,28,19,30.23,30.17,9,3,15,0.00
2013-5-13,60,55,49,31,30,27,47,39,33,30.22,30.18,4,2,5,0.00
2013-5-14,60,60,60,31,31,31,33,33,33,30.22,30.22,2,2,3,0.00
2013-5-15,60,60,60,31,31,31,33,33,33,30.22,30.22,2,2,3,0.00
2013-5-16,60,60,60,31,31,31,33,33,33,30.22,30.22,2,2,3,0.00
2013-5-17,60,60,60,31,31,31,33,33,33,30.22,30.22,2,2,3,0.00
2013-5-18,60,60,60,31,31,31,33,33,33,30.22,30.22,2,2,3,0.00
2013-5-19,60,60,60,31,31,31,33,33,33,30.22,30.22,2,2,3,0.00
2013-5-20,60,60,60,31,31,31,33,33,33,30.22,30.22,2,2,3,0.00
2013-5-21,60,60,60,31,31,31,33,33,33,30.22,30.22,2,2,3,0.00
2013-5-22,60,60,60,31,31,31,33,33,33,30.22,30.22,2,2,3,0.00
2013-5-23,60,60,60,31,31,31,33,33,33,30.22,30.22,2,2,3,0.00
2013-5-24,60,60,60,31,31,31,33,33,33,30.22,30.22,2,2,3,0.00
2013-5-25,60,60,60,31,31,31,33,33,33,30.22,30.22,2,2,3,0.00
2013-5-26,74,63,52,25,18,13,23,18,13,29.93,29.89,11,4,16,0.00
2013-5-27,52,51,48,15,14,13,26,22,21,29.93,29.91,5,2,11,0.00
2013-7-8,72,72,72,23,23,23,16,16,16,29.94,29.94,6,6,15,0.00
2013-7-9,72,72,72,23,23,23,16,16,16,29.94,29.94,6,6,15,0.00
2013-7-10,72,72,72,23,23,23,16,16,16,29.94,29.94,6,6,15,0.00
2013-7-11,72,72,72,23,23,23,16,16,16,29.94,29.94,6,6,15,0.00
2013-7-12,77,65,53,57,53,47,95,66,41,29.97,29.87,6,1,13,0.12
2013-7-13,76,62,52,62,52,49,94,74,45,29.98,29.87,4,1,8,0.20
2013-7-14,80,67,56,55,50,44,77,56,32,29.95,29.84,6,1,9,0.01
2013-7-15,82,63,54,58,50,45,93,65,31,29.89,29.79,11,1,18,0.32
2013-7-16,77,60,51,56,52,49,95,78,46,29.94,29.84,8,2,15,0.39
2013-7-17,80,64,55,57,53,50,88,70,43,29.99,29.91,8,1,11,0.01
2013-7-18,80,61,52,57,52,48,93,73,38,30.00,29.89,6,1,11,0.08
2013-7-19,78,62,51,56,50,45,93,67,44,29.97,29.86,6,1,11,0.01
2013-7-20,85,69,57,54,44,32,73,44,18,29.89,29.78,5,1,9,0.00
2013-7-21,86,70,57,51,40,30,56,36,16,29.85,29.79,8,1,13,0.00
2013-7-22,86,70,56,50,37,22,59,33,14,29.90,29.82,6,1,10,0.00
2013-7-23,86,70,58,47,39,26,46,34,17,29.93,29.85,8,1,13,0.00
2013-7-24,77,65,58,53,45,35,78,50,34,29.97,29.87,4,1,8,0.00
2013-7-25,86,67,55,51,45,37,75,49,21,29.94,29.88,7,1,10,0.00
2013-7-26,85,69,57,50,41,32,55,37,20,29.99,29.91,6,1,8,0.00
2013-7-27,78,61,53,55,47,33,95,64,33,29.95,29.80,10,1,17,0.64
2013-7-28,63,55,52,57,52,46,98,90,73,29.84,29.77,6,1,13,0.19
2013-7-29,72,56,47,56,49,44,99,79,39,29.99,29.80,13,2,20,0.20
2013-7-30,78,62,47,52,43,32,96,54,24,29.97,29.89,10,2,15,0.01
2013-7-31,82,68,55,45,39,36,56,37,21,29.99,29.87,6,1,12,0.00
2013-8-1,64,60,53,56,48,35,98,70,36,29.93,29.81,7,1,11,0.04
2013-8-2,77,62,49,58,52,46,97,70,44,29.89,29.80,6,1,11,0.40
2013-8-3,73,60,53,56,50,42,90,71,50,29.91,29.82,6,1,9,0.06
2013-8-4,76,61,54,53,47,40,84,61,37,29.89,29.85,8,1,11,0.02
2013-8-5,76,63,54,54,49,44,83,61,41,29.89,29.80,6,1,9,0.00
2013-8-6,71,57,50,52,48,43,96,72,45,29.95,29.78,7,1,11,0.17
2013-8-7,68,54,49,54,48,44,94,79,52,29.93,29.85,4,1,7,0.34
2013-8-8,64,56,50,52,46,42,85,71,52,29.94,29.85,7,1,14,0.00
2013-8-9,74,57,47,48,42,36,80,58,31,29.97,29.89,11,1,18,0.01
2013-8-10,73,54,45,55,41,32,95,64,31,30.08,29.96,10,1,17,0.27
2013-8-11,76,58,44,49,42,38,81,59,30,30.00,29.93,4,1,7,0.00
2013-8-12,70,59,50,53,44,37,79,58,41,29.99,29.92,6,1,11,0.01
2013-8-13,75,61,49,47,39,29,80,47,21,29.98,29.92,8,1,14,0.00
2013-8-14,79,64,52,46,35,26,57,36,17,31.43,29.91,5,1,9,0.00
2013-8-15,81,66,55,40,32,25,50,29,17,29.98,29.93,8,1,11,0.00
2013-8-16,83,68,55,42,30,24,42,24,14,30.00,29.93,4,1,8,0.00
2013-8-17,64,64,64,28,28,28,26,26,26,29.95,29.95,1,1,2,0.00
2013-8-18,64,64,64,28,28,28,26,26,26,29.95,29.95,1,1,2,0.00
2013-8-19,64,64,64,28,28,28,26,26,26,29.95,29.95,1,1,2,0.00
2013-8-20,64,64,64,28,28,28,26,26,26,29.95,29.95,1,1,2,0.00
2013-8-21,64,64,64,28,28,28,26,26,26,29.95,29.95,1,1,2,0.00
2013-8-22,64,64,64,28,28,28,26,26,26,29.95,29.95,1,1,2,0.00
2013-8-23,80,66,53,54,48,44,79,54,35,29.90,29.82,6,1,10,0.00
2013-8-24,67,58,51,50,47,42,96,67,50,29.95,29.87,5,1,11,0.04
2013-8-25,62,56,50,56,52,48,97,88,72,29.99,29.93,4,0,5,0.07
2013-8-26,73,58,51,62,54,50,99,86,54,30.03,29.96,4,0,6,0.19
2013-8-27,76,60,50,59,53,48,95,77,50,29.97,29.91,6,1,11,0.20
2013-8-28,80,62,52,57,51,47,94,71,37,29.98,29.91,8,1,12,0.33
2013-8-29,77,62,54,56,49,44,83,63,44,30.01,29.96,8,1,15,0.04
2013-8-30,80,63,57,56,50,46,81,64,40,30.01,29.94,10,1,14,0.04
2013-8-31,81,63,54,55,49,44,77,61,39,29.96,29.89,5,1,9,0.00
2013-9-1,78,63,54,58,49,43,81,62,41,29.96,29.88,8,1,14,0.11
2013-9-2,79,64,55,54,49,44,76,58,36,30.01,29.93,6,1,10,0.02
2013-9-3,77,65,56,53,47,41,69,54,33,30.02,29.96,6,1,10,0.00
2013-9-4,81,64,55,55,49,45,93,60,34,30.05,29.99,8,1,15,0.39
2013-9-5,81,66,56,54,49,46,87,57,31,30.05,29.97,7,1,13,0.17
2013-9-6,82,66,55,48,43,38,67,46,24,30.04,29.93,59,1,59,0.00
2013-9-7,80,64,54,54,45,40,81,51,25,29.98,29.90,7,1,12,0.15
2013-9-8,72,59,50,55,50,43,99,73,46,29.94,29.84,8,1,11,0.13
2013-9-9,67,53,49,57,51,49,99,94,62,29.85,29.80,5,0,8,0.30
2013-9-10,65,53,48,57,52,47,99,95,71,29.87,29.80,3,0,4,0.08
2013-9-11,66,54,49,57,51,48,99,90,64,29.93,29.87,7,0,9,0.08
2013-9-12,68,54,46,52,48,43,99,82,49,29.94,29.88,10,1,14,0.31
2013-9-13,71,55,44,52,47,42,99,76,43,29.91,29.76,7,1,14,0.24
2013-9-14,67,52,46,52,46,43,98,83,54,29.85,29.77,11,1,19,0.41
2013-9-15,62,51,45,52,46,41,97,81,55,29.91,29.81,8,0,13,0.07
2013-9-16,69,55,48,51,45,40,79,69,46,29.96,29.90,6,1,9,0.00
2013-9-17,73,58,48,49,42,37,75,57,33,29.92,29.75,7,1,11,0.00
2013-9-18,70,56,47,49,44,36,87,65,33,29.81,29.74,11,2,23,0.08
2013-9-19,69,54,44,51,43,34,96,69,40,29.89,29.76,4,1,6,0.00
2013-9-20,71,55,42,42,35,31,71,50,25,29.90,29.85,7,1,14,0.00
2013-9-21,70,59,51,45,37,31,67,45,30,29.87,29.72,10,2,14,0.00
2013-9-22,62,48,34,51,42,32,99,82,48,29.73,29.53,15,2,28,0.86
2013-9-23,58,44,34,40,35,27,97,71,43,29.89,29.59,9,2,15,0.04
2013-9-24,71,51,35,38,26,14,70,41,20,29.91,29.75,3,1,7,0.00
2013-9-25,70,58,46,31,24,17,43,28,19,29.76,29.51,16,4,23,0.00
2013-9-26,68,56,42,30,22,15,44,27,16,29.59,29.54,12,3,20,0.00
2013-9-27,53,40,28,39,31,20,99,73,35,29.82,29.53,16,2,99,0.39
2013-9-28,59,38,24,34,24,14,75,58,36,29.93,29.81,4,0,5,0.01
2013-9-29,68,48,35,28,20,8,68,35,17,29.93,29.84,11,1,19,0.00
2013-9-30,72,55,43,32,24,10,52,31,18,29.86,29.78,5,1,8,0.00
2013-10-1,73,56,44,31,26,22,49,33,16,29.83,29.78,6,1,11,0.00
2013-10-2,71,54,42,30,19,9,48,26,16,29.92,29.76,8,1,12,0.00
2013-10-3,65,50,29,35,24,17,90,41,20,29.89,29.71,14,2,22,0.00
2013-10-4,40,28,17,29,21,13,91,77,50,30.13,29.83,4,0,8,0.21
2013-10-5,48,30,18,30,21,13,86,71,44,30.25,30.12,4,0,6,0.01
2013-10-6,60,40,24,28,16,0,66,40,22,30.24,30.21,2,0,12,0.00
2013-10-7,69,51,38,33,26,19,57,40,19,30.21,30.07,3,0,6,0.00
2013-10-8,67,52,43,28,21,10,47,30,19,30.07,29.90,11,2,17,0.00
2013-10-9,62,49,38,36,24,15,85,41,20,29.93,29.86,9,2,17,0.02
2013-10-10,44,36,30,39,32,23,99,88,67,29.91,29.74,8,0,12,0.27
2013-10-11,47,36,29,33,29,24,86,77,53,30.03,29.83,8,1,12,0.53
2013-10-12,56,39,28,29,24,20,78,57,30,30.06,30.00,4,0,6,0.02
2013-10-13,61,47,35,36,29,23,74,50,25,30.03,29.91,13,2,22,0.00
2013-10-14,47,37,29,34,27,-19,91,68,33,30.05,29.91,17,3,24,0.01
2013-10-15,44,32,25,31,25,17,95,78,46,30.04,29.97,5,0,7,0.00
2013-10-16,42,31,26,33,25,17,96,80,56,30.04,29.92,3,0,5,0.18
2013-10-17,50,36,26,22,15,6,74,45,24,29.93,29.84,8,2,13,0.00
2013-10-18,45,34,28,22,14,0,71,45,25,30.00,29.83,6,1,10,0.00
2013-10-19,55,38,28,23,15,1,55,40,22,29.99,29.93,4,0,6,0.00
2013-10-20,52,39,32,22,16,11,49,39,23,29.93,29.83,8,1,14,0.00
2013-10-21,55,40,30,27,15,4,67,39,21,30.04,29.87,4,0,7,0.00
2013-10-22,60,43,32,33,17,7,50,36,23,30.06,30.02,97,0,97,0.00
2013-10-23,65,47,37,25,21,16,50,37,20,30.03,29.99,3,0,5,0.00
2013-10-24,66,48,40,28,22,14,57,38,19,30.03,29.99,7,0,8,0.00
2013-10-25,50,42,37,37,32,26,94,68,51,30.06,30.00,9,1,12,0.08
2013-10-26,59,43,34,37,30,27,82,63,34,30.10,30.03,4,0,7,0.01
2013-10-27,59,44,35,30,26,21,66,50,28,30.06,29.76,8,1,10,0.00
2013-10-28,59,46,36,27,18,7,56,32,21,29.77,29.68,21,4,31,0.00
2013-10-29,46,38,27,30,20,9,97,54,23,29.76,29.67,20,5,30,0.00
2013-10-30,38,26,20,25,20,13,86,76,53,29.78,29.72,10,1,12,0.14
2013-10-31,35,27,22,22,18,15,84,70,49,29.89,29.77,8,2,10,0.05
2013-11-1,46,34,27,27,20,0,76,58,23,30.06,29.88,6,1,8,0.00
2013-11-2,59,41,26,25,15,-1,61,37,21,30.05,29.82,5,0,8,0.00
2013-11-3,52,41,27,27,17,6,79,39,23,29.83,29.62,21,4,30,0.00
2013-11-4,41,30,18,27,19,12,88,64,36,29.74,29.67,4,0,7,0.00
2013-11-5,33,20,12,20,14,3,89,76,52,29.97,29.70,3,0,4,0.02
2013-11-6,46,27,12,22,10,-9,68,50,28,30.14,29.96,8,1,12,0.07
2013-11-7,54,38,26,23,17,10,57,44,25,30.15,29.97,4,0,7,0.00
2013-11-8,58,43,34,21,13,2,47,29,21,29.97,29.89,12,2,17,0.00
2013-11-9,58,43,35,23,17,10,47,35,22,30.05,29.94,4,0,9,0.00
2013-11-10,58,44,37,22,16,6,47,32,21,30.09,30.04,9,1,13,0.00
2013-11-11,58,43,36,22,14,4,45,31,21,30.19,30.08,4,0,9,0.00
2013-11-12,60,45,36,22,14,8,38,29,21,30.25,30.18,4,0,7,0.00
2013-11-13,55,42,35,24,17,9,55,37,22,30.19,29.93,8,1,9,0.00
2013-11-14,50,38,31,30,21,-2,77,53,22,29.93,29.70,5,1,7,0.00
2013-11-15,46,36,29,30,18,-1,95,52,23,29.72,29.52,12,2,20,0.00
2013-11-16,40,32,26,29,22,16,95,67,47,29.58,29.47,24,6,40,0.14
2013-11-17,90,40,30,22,20,18,67,46,36,29.85,29.58,17,3,106,0.00
2013-11-18,44,44,44,21,21,21,39,39,39,29.84,29.84,2,2,6,0.00
2013-11-19,44,44,44,21,21,21,39,39,39,29.84,29.84,2,2,6,0.00
2013-11-20,44,44,44,21,21,21,39,39,39,29.84,29.84,2,2,6,0.00
2013-11-21,44,44,44,21,21,21,39,39,39,29.84,29.84,2,2,6,0.00
2013-11-22,45,28,18,29,24,6,92,86,31,29.93,29.83,2,0,3,0.02
2013-11-23,40,30,24,35,28,22,96,91,78,29.94,29.86,2,0,4,0.15
2013-11-24,31,28,24,30,26,22,98,94,88,29.87,29.77,0,0,0,0.00
2013-11-25,36,24,18,28,21,14,93,86,69,30.00,29.78,0,0,2,0.04
2013-11-26,44,26,18,32,19,12,86,75,58,30.05,30.00,2,0,4,0.19
2013-11-27,45,30,23,24,17,11,75,59,38,30.03,29.90,3,0,4,0.00
2013-11-28,50,33,24,23,18,12,75,54,29,29.96,29.89,3,0,4,0.00
2013-11-29,48,32,26,23,16,11,68,52,26,30.03,29.94,3,0,4,0.00
2013-11-30,46,31,24,25,17,10,72,57,39,30.02,29.97,5,0,97,0.00
2013-12-1,46,32,22,21,17,12,75,57,29,30.03,29.93,4,0,7,0.00
2013-12-2,43,37,29,23,17,9,62,44,25,29.93,29.61,13,3,17,0.00
2013-12-3,43,38,31,24,17,9,66,43,29,29.61,29.32,23,8,34,0.01
2013-12-4,35,16,-3,24,7,-12,81,67,53,29.58,29.26,26,3,34,0.00
2013-12-5,22,5,-5,4,-7,-16,65,58,36,29.57,29.50,6,0,5,0.02
2013-12-6,22,7,-2,0,-8,-14,65,50,31,29.70,29.55,6,0,9,0.00
2013-12-7,24,17,8,8,0,-8,61,47,38,29.68,29.39,15,3,27,0.01
2013-12-8,20,9,-3,6,-6,-16,74,52,27,29.61,29.36,20,5,31,0.00
2013-12-9,17,3,-3,-5,-15,-20,57,43,26,29.95,29.61,7,1,8,0.00
2013-12-10,36,18,-2,3,-5,-17,53,37,23,29.95,29.87,5,0,7,0.02
2013-12-11,44,24,14,9,1,-5,48,37,22,30.09,29.90,24,0,6,0.00
2013-12-12,50,32,19,14,3,-6,41,29,21,30.08,29.84,3,0,4,0.00
2013-12-13,42,26,13,12,5,-1,60,42,25,29.89,29.74,3,0,7,0.00
2013-12-14,34,18,8,13,4,-2,68,53,32,30.08,29.89,4,0,8,0.00
2013-12-15,46,31,15,17,10,1,56,41,24,30.09,30.03,10,1,13,0.00
2013-12-16,50,36,28,18,12,3,51,37,26,30.13,30.06,6,0,8,0.00
2013-12-17,53,36,27,15,9,2,51,33,21,30.14,30.01,2,0,4,0.00
2013-12-18,51,40,34,21,10,1,48,29,21,30.01,29.67,11,1,14,0.00
2013-12-19,47,37,28,25,16,6,75,46,23,29.67,29.53,15,3,23,0.00
2013-12-20,33,26,19,26,20,14,86,78,55,29.56,29.49,6,0,8,0.04
2013-12-21,25,19,15,18,13,9,86,77,64,29.64,29.42,0,0,0,0.01
2013-12-22,33,18,8,12,5,-2,77,58,33,29.95,29.64,7,1,10,0.02
2013-12-23,40,24,15,16,8,2,64,51,28,30.52,29.95,6,1,7,0.01
2013-12-24,40,27,15,24,13,-8,73,56,35,30.48,30.37,14,2,21,0.00
2013-12-25,40,24,11,6,-6,-16,44,27,21,30.58,29.99,4,0,5,0.00
2013-12-26,46,30,18,13,0,-10,51,28,21,30.53,30.47,8,0,10,0.00
2013-12-27,48,32,23,17,11,-9,55,42,22,30.55,30.41,4,0,5,0.00
2013-12-28,44,30,18,22,14,8,65,51,32,30.41,30.21,7,0,10,0.00
2013-12-29,32,20,14,18,8,-15,80,60,21,30.37,30.24,3,0,5,0.00
2013-12-30,42,28,15,12,-1,-14,47,29,21,30.45,30.33,4,0,5,0.00
2013-12-31,44,34,25,23,18,1,78,52,32,30.47,30.34,8,1,12,0.00
2014-1-1,42,30,22,23,9,-9,77,43,21,30.49,30.33,11,2,16,0.00
2014-1-2,50,33,25,14,-1,-9,27,23,21,30.50,30.40,4,0,6,0.00